Vertical_Velocity
1 -1 -0 -1 0 -1 1 -2 -3 1 0 1 1 1 0 -1 -0 -2 -1 -3 -1 1 1 -2 -5 1 2 -1 0 -2 -5 -0 -3 1 -5 1 -1 -0 0 -1 -1 -0 2 -2 -3
1 -2 0 -3 -2 1 -1 2 -2 -2 1 -0 -0 2 -1 -1 -2 -1 -1 -1 1 0 1 -3 -2 5 2 0 0 -4 -2 -3 -3 -0 -1 -1 2 3 2 -0 -2 3 -2 -1 1
1 -4 -0 -2 -1 -1 -1 0 2 -2 1 0 -2 1 0 -0 -2 -8 -0 -1 2 1 -0 -1 -5 6 2 7 -4 -0 -4 -2 -11 2 4 0 -4 1 2 -2 -3 -7 -1 1 1
0 -5 -1 1 -1 -0 -2 -1 -0 1 -1 1 1 -0 -1 1 -4 0 1 4 4 -1 -2 0 -0 1 2 -0 3 1 -0 1 -8 -2 1 -1 -1 -3 3 -22 0 1 5 5 -1
3 -7 -2 1 -0 -1 -3 -1 1 3 -2 -0 3 1 0 -0 -8 0 0 -0 4 1 -3 -0 -1 -0 1 1 -1 2 -2 1 -0 2 0 3 -4 -4 -12 1 4 5 13 4 1
4 -0 -4 4 -2 0 -1 1 -2 -1 -1 2 -0 3 -1 -1 0 3 1 1 2 -2 -3 2 -0 2 0 -1 1 1 2 -3 -5 -8 0 4 -3 0 -19 4 -2 -1 -0 0 -1
-1 -2 0 -1 -4 1 -0 -0 -0 -2 -2 2 -0 0 -1 -20 -5 6 2 -1 2 -1 -1 -2 1 -2 4 -2 1 -0 -2 -3 -1 -0 -2 0 -2 -3 -4 4 -2 -2 -2 2 -7
-0 3 2 -1 -0 -4 4 -1 1 -1 -1 -1 2 -1 -11 1 5 1 1 0 2 -2 0 -0 2 -2 1 1 -2 1 -2 -2 -7 0 -1 -3 -9 -4 -2 4 -4 0 -1 3 1
-2 -6 -0 1 -2 -2 1 2 -1 -0 1 1 1 1 -13 2 3 5 -0 2 1 -4 -2 -1 0 -1 2 -1 -4 -2 -1 0 -8 0 -1 -1 -6 -5 -1 1 -3 -0 -0 -1 1
-3 -9 2 3 -2 -2 2 0 -3 0 1 1 3 -1 1 -4 1 -2 2 2 -0 1 1 0 0 -1 -2 -3 -4 -1 -0 -2 -0 -6 1 -0 -7 -5 -0 1 -0 4 2 1 1
5 1 4 -4 1 0 0 -3 -3 2 1 -10 -2 -5 5 -3 2 1 3 -3 0 3 0 -1 -5 -2 -3 -2 -2 0 1 1 -3 -3 3 -1 -1 -5 -4 0 0 -0 -3 -2 -2
-1 -4 -0 2 -2 -0 1 -2 -2 0 -7 -2 2 5 5 -3 1 4 2 -2 2 -1 1 -4 -3 -6 -0 0 1 0 1 -4 -5 -0 2 -2 -7 -3 -0 1 -1 -2 -2 -1 -3
3 3 1 -0 -2 -4 1 1 2 3 1 -2 1 3 -3 2 -2 -2 2 0 -1 1 -0 -2 -8 1 1 -0 0 -1 0 -1 1 -2 -3 -1 -6 -3 -0 1 3 2 3 -0 1
2 -3 1 -1 -2 5 -2 2 5 -0 -2 -6 -0 -1 2 3 -1 2 1 -2 1 -3 -0 -2 -2 -0 0 -0 -0 1 -0 0 -0 -4 -4 -7 -8 -2 -0 1 -0 2 1 1 1
-0 1 2 -1 1 0 -2 0 4 5 -5 -2 3 2 1 -2 -1 1 3 2 -1 -2 -8 -16 0 0 1 -3 -0 -7 1 -0 -0 0 -3 -5 -5 -13 -0 1 0 1 3 1 -1
-1 -0 -3 -0 -4 -2 3 -1 4 -18 -11 1 0 -1 -0 0 1 1 -1 -2 3 1 0 -5 1 -2 -4 -0 -0 0 -1 -1 -1 -1 -4 -3 -4 -8 -1 -4 0 2 2 0 -1
1 -3 0 2 -3 1 4 3 -13 -4 -7 0 -2 1 -0 0 1 0 -0 1 -3 -2 -1 -3 0 0 -1 -2 -2 -3 -4 -4 -6 -5 -6 -0 -2 -13 -1 -0 -3 -1 1 2 1
-1 3 3 -0 2 6 3 -10 -0 -6 -1 -1 -0 1 -1 -3 -2 0 1 -1 0 0 -1 -1 -7 -1 -0 -2 -4 -1 -5 -5 -2 -1 -3 -1 -3 -13 1 0 -0 6 2 -0 -1
4 2 -2 0 3 2 -1 -2 -9 -1 -2 -1 -0 1 -0 1 -4 -0 -0 -1 -0 -2 -7 -1 -1 -0 -1 0 -5 -3 -3 -5 -2 -1 -3 -3 -8 -7 -0 0 3 -1 1 -1 -1
4 0 -1 2 5 4 -6 -4 -1 -0 -1 -1 -2 -4 -0 -1 -0 1 -1 -3 0 -1 -1 -1 -4 -1 -0 -1 -1 -1 -3 -8 -4 -2 -1 -4 -1 -6 -1 -1 1 0 1 2 3
2 1 1 3 7 2 -4 -5 -0 1 1 -1 -0 0 -1 -3 -2 -1 -2 -2 -0 1 -1 -1 -6 -5 -1 -2 -5 -3 -0 -0 -5 -4 -4 -1 -10 -5 -1 -0 -0 1 4 3 3
1 -3 2 5 -2 1 -1 -3 1 -0 -0 -0 -1 0 -0 -0 0 0 -1 -2 1 -2 -1 -1 -3 -1 -8 -2 -1 -2 -2 -3 -6 -7 -1 -4 -16 -1 0 0 -2 0 1 4 4
-1 2 4 2 -4 -1 -2 -0 -1 1 -0 0 -0 -1 -0 -0 -2 1 0 -0 1 -1 -1 -1 -2 -3 -14 -8 -4 -0 -0 -1 -1 -2 -2 -0 -14 -1 -2 -5 2 -0 -0 1 1
2 -4 3 3 4 -2 -0 -2 -0 1 -1 1 -2 1 0 0 -1 -2 1 -0 1 -1 -0 -2 -0 -6 -9 -8 -2 -0 0 -0 -2 1 -3 -10 -9 -11 -4 -1 -0 -0 1 1 -1
1 -4 -2 -3 -3 0 0 -0 1 0 0 1 0 -1 -3 0 0 -0 0 1 -0 1 1 -6 -2 1 -1 -1 1 -0 0 -0 1 -5 2 -18 0 -7 -1 0 1 2 -2 -4 -4
1 -2 2 0 2 3 -1 -4 -0 0 -7 -1 1 -1 0 -1 -5 -0 -1 -2 -5 2 -0 0 -3 0 -1 -1 1 0 -1 0 -0 -1 1 2 -7 1 2 0 -2 0 1 1 1
3 2 0 -2 1 -1 -4 -3 -5 0 -3 -1 -4 0 2 -4 -2 -1 -0 -1 -4 -5 -0 -2 -2 -1 -4 0 -2 -4 -4 -1 -1 -0 -4 -0 -5 0 -2 -0 0 -2 3 -1 -2
Height
1540 1542 1542 1544 1545 1545 1546 1547 1548 1548 1549 1549 1548 1548 1548 1549 1549 1549 1548 1549 1548 1548 1547 1547 1548 1548 1547 1546 1547 1547 1556 1561 1551 1543 1539 1534 1533 1532 1531 1530 1530 1530 1527 1527 1528
1539 1540 1541 1543 1544 1544 1546 1546 1547 1548 1549 1549 1548 1548 1548 1548 1548 1547 1548 1547 1547 1547 1547 1546 1546 1547 1547 1546 1545 1546 1558 1551 1540 1538 1536 1532 1531 1531 1530 1528 1525 1526 1525 1525 1526
1537 1538 1541 1541 1542 1543 1545 1545 1546 1547 1548 1548 1548 1547 1547 1547 1547 1545 1546 1547 1547 1546 1546 1545 1545 1548 1545 1543 1543 1542 1549 1539 1536 1535 1533 1531 1529 1529 1527 1523 1521 1522 1522 1521 1522
1535 1536 1540 1540 1541 1542 1544 1545 1545 1546 1548 1547 1547 1546 1546 1547 1549 1544 1545 1545 1545 1545 1545 1544 1544 1546 1545 1543 1540 1540 1536 1536 1532 1533 1531 1530 1529 1525 1524 1516 1518 1519 1520 1517 1518
1533 1535 1538 1538 1538 1540 1544 1544 1544 1546 1547 1547 1546 1545 1546 1547 1545 1544 1545 1545 1544 1544 1544 1544 1542 1544 1545 1540 1538 1537 1533 1533 1531 1529 1527 1527 1524 1525 1516 1511 1512 1513 1515 1513 1513
1532 1534 1537 1536 1537 1540 1543 1544 1544 1545 1546 1546 1545 1544 1545 1546 1543 1544 1544 1544 1543 1542 1542 1543 1542 1541 1542 1539 1539 1535 1532 1529 1526 1521 1523 1523 1522 1524 1509 1509 1509 1509 1508 1508 1507
1530 1533 1533 1535 1538 1541 1542 1543 1543 1544 1544 1545 1544 1543 1543 1542 1541 1542 1541 1542 1541 1541 1541 1541 1541 1541 1540 1538 1535 1533 1534 1528 1518 1517 1521 1519 1522 1518 1508 1508 1505 1505 1503 1503 1501
1529 1531 1533 1535 1538 1541 1541 1541 1542 1543 1542 1543 1543 1542 1540 1540 1539 1539 1540 1540 1539 1539 1539 1539 1539 1539 1539 1537 1534 1534 1534 1540 1521 1518 1519 1519 1520 1506 1507 1505 1501 1499 1496 1494 1494
1528 1530 1534 1535 1537 1541 1539 1539 1539 1541 1540 1541 1542 1541 1539 1538 1537 1537 1538 1539 1537 1538 1538 1538 1537 1537 1538 1540 1545 1538 1545 1538 1531 1519 1520 1521 1515 1502 1505 1504 1500 1494 1491 1490 1489
1527 1531 1535 1534 1535 1538 1537 1537 1538 1539 1538 1540 1539 1544 1538 1537 1535 1536 1536 1537 1538 1537 1538 1537 1537 1539 1540 1544 1554 1545 1541 1536 1537 1522 1518 1521 1514 1501 1500 1501 1498 1496 1493 1490 1489
1528 1530 1530 1532 1534 1535 1536 1536 1539 1539 1536 1532 1531 1532 1533 1534 1535 1534 1534 1535 1537 1538 1538 1536 1541 1545 1537 1535 1533 1534 1535 1539 1529 1520 1519 1518 1514 1500 1495 1497 1498 1495 1494 1492 1489
1526 1528 1530 1531 1531 1533 1534 1534 1535 1537 1532 1528 1528 1530 1532 1533 1534 1532 1534 1535 1535 1539 1536 1540 1542 1530 1528 1528 1530 1529 1535 1537 1526 1519 1518 1515 1508 1497 1493 1495 1495 1496 1496 1494 1492
1524 1526 1527 1529 1530 1532 1532 1533 1533 1533 1530 1523 1522 1524 1529 1532 1531 1529 1532 1531 1531 1536 1535 1541 1529 1525 1527 1527 1531 1530 1533 1532 1533 1525 1517 1516 1514 1505 1497 1496 1495 1495 1496 1496 1494
1522 1523 1527 1528 1532 1529 1531 1532 1531 1531 1535 1524 1521 1524 1526 1528 1528 1526 1529 1530 1528 1533 1531 1530 1523 1524 1525 1528 1527 1535 1526 1528 1529 1535 1540 1522 1541 1513 1504 1501 1499 1498 1497 1497 1496
1521 1523 1525 1526 1527 1529 1530 1530 1529 1531 1555 1522 1523 1523 1523 1526 1525 1526 1526 1526 1528 1529 1531 1530 1524 1525 1528 1527 1524 1529 1525 1528 1528 1534 1535 1530 1541 1516 1504 1507 1503 1502 1499 1498 1497
1519 1520 1523 1524 1526 1529 1528 1528 1532 1542 1547 1521 1519 1521 1524 1523 1524 1524 1524 1526 1528 1527 1526 1525 1521 1522 1525 1524 1523 1524 1526 1530 1530 1539 1549 1529 1532 1516 1507 1503 1502 1500 1497 1496 1496
1516 1519 1522 1522 1524 1526 1527 1528 1541 1547 1513 1522 1519 1519 1521 1522 1522 1522 1524 1527 1532 1534 1531 1520 1522 1522 1523 1526 1525 1527 1537 1550 1545 1552 1545 1524 1530 1514 1498 1496 1496 1498 1496 1496 1496
1514 1517 1517 1520 1522 1524 1524 1530 1542 1521 1514 1511 1512 1516 1522 1516 1519 1520 1522 1527 1522 1522 1531 1533 1533 1524 1522 1523 1526 1529 1535 1551 1548 1551 1543 1528 1532 1509 1494 1494 1494 1494 1497 1498 1497
1511 1513 1514 1517 1519 1522 1523 1539 1530 1516 1506 1512 1514 1520 1521 1514 1516 1518 1522 1521 1516 1516 1531 1531 1525 1522 1522 1521 1524 1528 1536 1530 1539 1539 1549 1534 1514 1501 1499 1496 1498 1500 1499 1497 1496
1508 1510 1512 1515 1517 1520 1523 1528 1517 1507 1507 1508 1517 1515 1520 1518 1520 1521 1517 1512 1515 1516 1516 1521 1532 1522 1523 1524 1525 1525 1528 1538 1546 1548 1547 1537 1521 1518 1503 1500 1502 1499 1497 1496 1496
1507 1508 1508 1511 1515 1517 1526 1521 1509 1507 1507 1509 1510 1511 1510 1514 1515 1516 1511 1513 1512 1516 1516 1518 1527 1528 1525 1527 1527 1533 1532 1531 1537 1545 1552 1555 1536 1501 1499 1499 1500 1498 1496 1495 1496
1506 1508 1506 1509 1514 1513 1517 1511 1507 1507 1508 1508 1509 1509 1509 1509 1511 1511 1511 1511 1512 1513 1518 1518 1527 1534 1527 1519 1516 1518 1522 1527 1544 1539 1543 1548 1529 1491 1495 1495 1495 1496 1495 1494 1494
1503 1503 1505 1506 1514 1513 1508 1506 1506 1506 1506 1507 1509 1507 1505 1508 1514 1509 1513 1512 1512 1513 1516 1518 1529 1541 1532 1526 1519 1518 1518 1518 1524 1532 1540 1545 1525 1490 1488 1489 1493 1493 1493 1492 1491
1501 1503 1504 1505 1505 1506 1507 1505 1505 1503 1504 1504 1506 1505 1506 1508 1506 1508 1513 1513 1513 1513 1515 1516 1524 1529 1539 1524 1522 1523 1517 1516 1524 1535 1528 1516 1505 1497 1498 1495 1494 1494 1492 1490 1488
1497 1496 1495 1504 1501 1501 1501 1501 1501 1503 1501 1502 1504 1503 1505 1511 1509 1509 1508 1513 1512 1513 1515 1517 1527 1524 1522 1520 1519 1518 1514 1516 1521 1518 1523 1497 1509 1497 1495 1493 1494 1493 1491 1489 1486
1492 1492 1493 1493 1492 1495 1499 1499 1495 1496 1498 1502 1503 1500 1502 1507 1504 1505 1505 1510 1509 1514 1516 1516 1525 1521 1522 1517 1517 1516 1506 1508 1508 1505 1505 1500 1498 1492 1492 1492 1492 1491 1489 1485 1482
1488 1489 1489 1488 1488 1493 1493 1491 1490 1493 1493 1493 1495 1498 1500 1502 1501 1502 1502 1504 1505 1509 1515 1519 1524 1527 1529 1518 1517 1516 1500 1498 1496 1495 1495 1501 1496 1494 1493 1492 1490 1488 1485 1482 1480